Satellite: NCUBE2
Catalog number: 28897
Epoch time:      07038.64072727
Element set:     181
Inclination:      098.1477 deg
RA of node:       297.8923 deg
Eccentricity:    0.0017706
Arg of perigee:   155.2022 deg
Mean anomaly:     205.0036 deg
Mean motion:   14.59671116 rev/day
Decay rate:       1.59e-06 rev/day^2
Epoch rev:            6047
Checksum:              311

Satellite: NMARS
Catalog number: 29662
Epoch time:      07038.94674836
Element set:    0068
Inclination:      051.6424 deg
RA of node:       048.8670 deg
Eccentricity:    0.0009387
Arg of perigee:   188.0146 deg
Mean anomaly:     172.0883 deg
Mean motion:   15.88184265 rev/day
Decay rate:     7.4244e-04 rev/day^2
Epoch rev:           00765
Checksum:              337

Satellite: FCAL
Catalog number: 29664
Epoch time:      07038.95064024
Element set:    0051
Inclination:      051.6366 deg
RA of node:       049.6262 deg
Eccentricity:    0.0014521
Arg of perigee:   193.0838 deg
Mean anomaly:     166.9877 deg
Mean motion:   15.84040046 rev/day
Decay rate:     2.3517e-04 rev/day^2
Epoch rev:           00762
Checksum:              298

/EX





More information about the Keps mailing list